Zurück zum Katalog

FLOCK 4G 2

AktivWissenschaftSSO
NORAD 62661·PAYLOAD·🇺🇸 United States

Gestartet Jan 14, 2025 von Vandenberg Space Force Base

Loading…

Nächste Überflüge (nächste 24 Stunden)

TLE

AktuellSource: CelesTrak SupGP

Epoche: Sep 14, 2026, 14:44 UTC

1 62661C 25009BE  26257.61417824  .00009458  00000+0  31269-3 0  2578
2 62661  97.3949 339.3429 0004255  20.2499 157.8271 15.31403573    13

Verfolge FLOCK 4G 2 in Echtzeit mit AllMySat

Download on the App Store